Location: Karlskoga
(59.3269°N, 14.5116°E)
Time: 14:45:06
(UTC+01:00)

ISS - Pass Details

Date: 03 December 2021
Orbit: 413 x 422 km, 51.6° (Epoch: 18 January)

Event Time Altitude Azimuth Distance (km) Brightness Sun altitude
Rises 17:00:44 0° 258° (WSW) 2,386 2.0 -12.7°
Reaches altitude 10° 17:03:11 10° 241° (WSW) 1,518 0.5 -13.0°
Maximum altitude 17:05:46 20° 192° (SSW) 1,037 -1.4 -13.3°
Drops below altitude 10° 17:08:21 10° 142° (SE) 1,511 -1.1 -13.6°
Enters shadow 17:09:21 - 133° (SE) 1,845 -0.8 -13.7°
